Tracking 18647 objects as of 29-May-2017
HD Live streaming from Space Station
objects crossing your sky now

COSMOS 886

Track COSMOS 886 now!
10-day predictions
COSMOS 886 is classified as:


NORAD ID: 9634
Int'l Code: 1976-126A
Perigee: 597.7 km
Apogee: 2,294.5 km
Inclination: 65.8 °
Period: 114.6 minutes
Semi major axis: 7817 km
RCS: 4.7964 m2 (large)
Launch date: December 27, 1976
Source: Commonwealth of Independent States (former USSR) (CIS)
Launch site: TYURATAM MISSILE AND SPACE COMPLEX (TTMTR)
Your satellite tracking list
Your tracking list is empty





NASA's NSSDC Master Catalog

Two Line Element Set (TLE):
1  9634U 76126A   17148.75442123 -.00000050 +00000-0 +10824-4 0  9998
2  9634 065.8351 008.0562 1085319 167.1313 195.9946 12.56124147864860
Source of the keplerian elements: AFSPC